TITAN 3C TRANSTAGE DEB, 1959

Orbit data source: Space-Track

TITAN 3C TRANSTAGE DEB, 1959 is space debris in LEO originally from a launch on Fri, 15 Oct 1965 UTC launched from the Air Force Eastern Test Range (AFETR). Debris objects in space refer to the collection of defunct objects orbiting the Earth. Examples of debris include non-operational satellites, rocket bodies, and fragments generated from explosions, collisions, or faulty payload assembly.

Loading next visibility...
Identifier
1959, 1965-082GU
Orbit
LEO
Last TLE update
1 day ago
Origin
Manufacturer
Unknown
Mission
Spacecraft
Bus & Motor
Unknown
Mass
Unknown
Launch date (UTC)
1965-10-15 (60 years ago)
Launch vehicle
Unknown
Launch site
Air Force Eastern Test Range (AFETR)
Object type
Payload
Rocket body
Debris
Shape & HBR
Unknown
Radar Cross Section
Small (<0.1 m²)

Expand to show TLE details & history

TLE from 1 day ago
0 TITAN 3C TRANSTAGE DEB
1 01959U 65082GU  25132.53647401  .00000735  00000-0  14168-3 0  9996
2 01959  31.7892 216.0797 0062742 206.2758 153.4690 14.58489321155216
Epoch: 2025-05-12T12:52Z
Definitive object data (Epoch: 2025-05-12T12:52:31.354Z)
Latitude
0.00001°
Longitude
152.40092°
Altitude
736.442 km
Speed
7.468 km/s
True Right ascension
14h 24m 19s
True Declination
0° 00' 00"
Sunlit
Object was in full shadow at TLE epoch
Visualization TLE readout
Latitude
-24.85842°
Longitude
14.51689°
Altitude
660.583 km
Speed
7.551 km/s
Apparent Right ascension
06h 59m 01s
Apparent Declination
-35° 52' 58"
Sunlit
Object is in daylight
Visualization observer readout
Local Sidereal Time
21:21:44
Azimuth
93.301° ESE
Elevation
-61.748°
Doppler factor
1
Orbital elements
Apogee altitude
746.115 km
Perigee altitude
657.275 km
Semi-major axis
7,079.832 km
Eccentricity
0.0062742
Inclination
31.7892°
RAAN
216.0797°
Arg. of periapsis
206.2758°
True anomaly
153.78791°
Mean anomaly
153.469°
Eccentric anomaly
153.62868°
Mean motion
3.64342 °/min
BSTAR
0.00014168
Orbital period
98.81 mins
Loading maneuver chart data...
Loading SW <> Apogee altitude chart data...

TITAN 3C TRANSTAGE DEB Visibility forecast

Observer location: undefined°, undefined°

Span
Click to sort rows by Start time (UTC) header in descending order
Start Az.
Max El. time (UTC)
Max El. Az.
Max El.
End time (UTC)
End Az.
5 mins2025-05-13 14:01:04.441Z234.769° WSW2025-05-13 14:04:04.441Z193.486° SSW17.156°2025-05-13 14:06:04.441Z166.922° S
7 mins2025-05-14 09:30:04.441Z214.565° SW2025-05-14 09:33:04.441Z172.274° S23.837°2025-05-14 09:37:04.441Z115.1° SE
8 mins2025-05-14 11:14:04.441Z237.015° WSW2025-05-14 11:17:04.441Z192.567° SSW28.36°2025-05-14 11:22:04.441Z118.579° SE
|